Погода в Сунтаре

Россия / Республика Саха (Якутия)     62°09′38″N   117°38′51″E
темп.,
°C
ветер,
м/с
пор.,
м/с
влажн.,
%
обл.,
%
осадки,
мм/ч
давл.,
гПа
погр.,
м
3 марта, ср
ср300:00−33ссв229750 0.0 102320
03:00−35ссв239846 0.0 102327
06:00−37с239821 0.0 102328
09:00−37с229820 0.0 102446
12:00−31с249550 0.0 1024297
15:00−29ссз349365 0.0 1023383
18:00−31ссз229695 0.0 102524
21:00−35ссз229849 0.0 102719
4 марта, чт
чт400:00−37зсз129826 0.0 102819
03:00−38з229729 0.0 102919
06:00−38з239563 0.0 103067
09:00−36з379280 0.0 1031276
12:00−32з369193 0.0 1031389
15:00−28з488897 0.0 1031576
18:00−28з398990 0.0 1032578
21:00−31з3109071 0.0 1034272
5 марта, пт
пт500:00−33з38910 0.0 1035177
03:00−34зюз24940 0.0 103685
06:00−36зюз23950 0.0 103623
09:00−35юз24950 0.0 103587
12:00−27юз25910 0.0 1034392
15:00−23юз248932 0.0 1032483
18:00−23ю229393 0.0 103020
21:00−27ююв229246 0.0 103019
6 марта, сб
сб600:00−28ююв229420 0.0 102819
03:00−28юв239249 0.0 102826
06:00−28юв238982 0.0 102668
09:00−27юв258877 0.0 1025127
12:00−21вюв358623 0.0 1023299
15:00−17вюв258556 0.0 1021404
18:00−17вюв369192 0.0 1020305
21:00−20вюв379495 0.0 1020146
7 марта, вс
вс700:00−21вюв259595 0.0 1019127
03:00−23вюв239690 0.0 101857
06:00−22в249784 0.0 101893
09:00−20вюв259787 0.1 1018152
12:00−15вюв239190 0.1 1016303
15:00−11юв239195 0.1 1015467
18:00−10вюв2595100 0.1 1013236
21:00−14вюв369694 0.2 1013102